Regional Weather Roundup
Issued by NWS

Home | Current Version | Previous Version | Text Only | Print | Product List | Glossary On
Versions: 1 2 3 4 5 6 7 8 9 10 11 12 13 14 15 16 17 18 19 20 21 22 23 24 25 26 27 28 29 30 31 32 33 34 35 36 37 38 39 40 41 42 43 44 45 46 47 48 49 50
000
ASUS42 KTBW 230510
RWRFL
FLORIDA REGIONAL WEATHER ROUNDUP
NATIONAL WEATHER SERVICE TAMPA BAY RUSKIN FL
100 AM EDT SAT AUG 23 2014

NOTE: "FAIR" INDICATES FEW OR NO CLOUDS BELOW 12,000 FEET WITH NO
SIGNIFICANT WEATHER AND/OR OBSTRUCTIONS TO VISIBILITY.


FLZ001>010-012>015-112-114-115-230600-
PANHANDLE FLORIDA

CITY           SKY/WX    TMP DP  RH WIND       PRES   REMARKS
PENSACOLA      CLEAR     82  75  79 W9        30.01F
PENSACOLA NAS  CLEAR     81  76  84 NW5       30.01S
MILTON NAS     CLEAR     80  74  81 W8        30.02S
CRESTVIEW      CLEAR     78  75  90 CALM      30.03S
DUKE FIELD     PTCLDY    81  79  93 W3        30.01F
VALPARAISO     PTCLDY    82  77  87 NW3       30.01S
MARY ESTHER    CLEAR     83  73  71 W2        30.00S
TRI COUNTY     FAIR      77  76  96 CALM      30.02S FOG
PANAMA CITY    FAIR      80  77  90 CALM      30.00S
TYNDALL AFB    CLEAR     79  79 100 W2        30.02S
APALACHICOLA   PTCLDY    78  74  87 CALM      30.00F

STATION/POSITION SKY/WX   TEMP    WIND        PRES    WAVE   SWELL
                          AIR SEA DIR/SP/G            HT/PER HT/PER
                          (F)     (DEG/KT/KT) (MB)    (FT/S) (FT/S)
30.1N   87.6W              86 87  260/ 12/ 14 1016.4F   1
29.2N   88.2W              86 89  220/  6/  8 1017.1
28.8N   86.0W              86 88  270/  2/  4 1016.5    1/ 8
PANAMA CITY BEAC           85 83  270/  7/  7 1016.1S
CAPE SAN BLAS    NOT AVBL
TOWER C                    83     300/  6/  7 1015.9F
28.5N   84.5W              85 87  300/  6/  8 1016.0F   1

$$
FLZ011-016>038-118-127-128-134-139-239-230600-
NORTH FLORIDA

CITY           SKY/WX    TMP DP  RH WIND       PRES   REMARKS
MARIANNA       CLEAR     80  78  94 CALM      30.00F
TALLAHASSEE    CLEAR     80  72  76 CALM      30.00F
PERRY          CLEAR     77  75  94 CALM      30.01S
CROSS CITY       N/A     77  75  93 CALM      29.99F
GAINESVILLE    CLEAR     73  72  96 CALM      30.00F
MAYPORT NAS    CLEAR     80  74  81 SW3       29.99S
JACKSONVILLE   CLEAR     80  73  79 CALM      29.98F
JAX NAS        CLEAR     85  72  65 SW5       30.00S
JAX CRAIG      CLEAR     82  73  74 CALM      29.99S
JAX CECIL      CLEAR     75  73  94 CALM      30.00S
FERNANDINA BEA FAIR      82  72  69 SW5       29.97F
ST AUGUSTINE   CLEAR    N/A N/A N/A SW6       30.00F

STATION/POSITION SKY/WX   TEMP    WIND        PRES    WAVE   SWELL
                          AIR SEA DIR/SP/G            HT/PER HT/PER
                          (F)     (DEG/KT/KT) (MB)    (FT/S) (FT/S)
SHELL POINT                81     310/  4/  5   N/A
KEATON BEACH               86     300/  8/ 10 1015.8F
CEDAR KEY                  85      20/  2/  3 1016.2F
FERNANDINA                 84 86  210/  6/  7 1014.8F
30.7N   81.3W                 84                N/A     1/ 9
MAYPORT                    83 83  230/  4/  5   N/A
31.4N   80.9W              86 86  210/ 12/ 14 1015.1R   1/ 3
ST AUGUSTINE               80     240/  6/  7 1016.2F

$$
FLZ040-043>046-052-053-057-058-063-144-230600-
INTERIOR CENTRAL FLORIDA

CITY           SKY/WX    TMP DP  RH WIND       PRES   REMARKS
OCALA          CLEAR     73  72  94 CALM      30.02S
LEESBURG       CLEAR     79  74  84 S6        30.02S
SANFORD        CLEAR     79  73  82 CALM      30.01F
ORLANDO EXEC   CLEAR     81  71  71 CALM      30.01F
ORLANDO INTL   CLEAR     77  73  87 CALM      30.01F
WINTER HAVEN   CLEAR     78  72  81 CALM      30.02F
LAKELAND       CLEAR     77  77 100 CALM      30.01F
BARTOW         FAIR      73  73 100 CALM      30.02F
OKEECHOBEE       N/A     77  75  94 MISG      30.01F

$$
FLZ041-047-054-059-064-141-147-230600-
EAST CENTRAL FLORIDA

CITY           SKY/WX    TMP DP  RH WIND       PRES   REMARKS
DAYTONA BEACH  CLEAR     78  76  93 S3        30.01S
DELAND         CLEAR     77  75  94 CALM      30.02F
JFK SPACE CTR  CLEAR     79 N/A N/A SW5       30.01F
CAPE CANAVERAL CLEAR     77  75  94 S5        30.00S FOG
PATRICK AFB    CLEAR     84  77  79 SE8       30.00S
MELBOURNE      CLEAR     80  76  87 CALM      30.00F
VERO BEACH     CLEAR     78  63  59 S3        30.00F
FT PIERCE      CLEAR     77  73  87 CALM      30.00F
STUART         PTCLDY    79  75  89 CALM      30.01F

STATION/POSITION SKY/WX   TEMP    WIND        PRES    WAVE   SWELL
                          AIR SEA DIR/SP/G            HT/PER HT/PER
                          (F)     (DEG/KT/KT) (MB)    (FT/S) (FT/S)
28.5N   80.2W              84 85  210/ 10/ 10 1016.5F
28.9N   78.5W              84 86  180/  6/  8 1016.4F   2/ 9   2/ 9
TRIDENT PIER               82 84  180/  3/  4 1015.6F
28.4N   80.5W                 82                N/A     1/ 7
27.6N   80.2W                 84                N/A     1/ 9

$$
FLZ050-056-061-142-242-148-248-149-249-151-251-155-255-
160-260-230600-
WEST CENTRAL FLORIDA

CITY           SKY/WX    TMP DP  RH WIND       PRES   REMARKS
CRYSTAL RIVER  FAIR      75  72  88 CALM      30.01S
INVERNESS      FAIR      73  64  73 CALM      30.01F
BROOKSVILLE    CLEAR     75  71  87 CALM      30.01F
ZEPHYRHILLS    FAIR      72  72 100 CALM      30.01F
CLEARWATER     CLEAR     81  76  84 CALM      30.00F
TAMPA INTL     CLOUDY    81  76  84 CALM      30.00F
TAMPA EXEC     CLEAR     77  73  88 CALM      30.01S FOG
MACDILL AFB    CLEAR     79  77  94 CALM      30.00F
ST PETERSBURG  CLEAR     84  75  74 SE12      29.99F
SARASOTA       CLEAR     85  73  67 CALM      29.99F
VENICE           N/A    N/A N/A N/A MISG        N/A

STATION/POSITION SKY/WX   TEMP    WIND        PRES    WAVE   SWELL
                          AIR SEA DIR/SP/G            HT/PER HT/PER
                          (F)     (DEG/KT/KT) (MB)    (FT/S) (FT/S)
CEDAR KEY                  85      20/  2/  3 1016.2F
28.5N   84.5W              85 87  300/  6/  8 1016.0F   1
27.3N   84.3W                 89                N/A     1/ 8
CLEARWATER BEACH           85 90  130/  4/  5 1015.6F
MIDDLE TAMPA BAY           82     130/  6/  6 1016.4F
VENICE                     80 90   CALM  /  3 1015.5F

$$
FLZ066-069-070-075>078-162-262-165-265-230600-
SOUTHWEST FLORIDA AND KEYS

CITY           SKY/WX    TMP DP  RH WIND       PRES   REMARKS
PUNTA GORDA    CLEAR     78  73  84 E3        30.01F
FT MYERS       CLEAR     79  75  87 E3        30.00S
SOUTHWEST INTL CLEAR     78  72  81 CALM      30.00F
NAPLES         CLEAR     78  75  90 NE3       29.99F
MARCO ISLAND   PTCLDY    77  73  88 NE3       30.00S
MARATHON       CLEAR     85  72  65 E9        29.98F
KEY WEST NAS   PTCLDY    84  75  74 NE5       29.98F
KEY WEST INTL  PTCLDY    85  74  69 E7        29.99F

STATION/POSITION SKY/WX   TEMP    WIND        PRES    WAVE   SWELL
                          AIR SEA DIR/SP/G            HT/PER HT/PER
                          (F)     (DEG/KT/KT) (MB)    (FT/S) (FT/S)
VENICE                     80 90   CALM  /  3 1015.5F
NAPLES                     79      80/  4/  6 1016.2F
DRY TORTUGAS               86     100/  6/  8 1015.1F
NW FL BAY                  87      70/ 11/ 13 1016.0F
SAND KEY                   85      80/ 11/ 13 1015.1F
SOMBRERO KEY               85      90/ 14/ 16 1015.7F
LONG KEY                   86 89  100/ 13/ 17 1015.8F
MOLASSES REEF              85 87   70/ 11/ 12 1015.1F

$$
FLZ067-068-071>074-168-172>174-230600-
SOUTHEAST FLORIDA

CITY           SKY/WX    TMP DP  RH WIND       PRES   REMARKS
W PALM BEACH   PTCLDY    84  75  74 SE8       29.98F
FT LAUDER-EXEC CLEAR     84  76  76 E8        29.99F
FT LAUDERDALE  PTCLDY    85  73  67 E9        29.98F
POMPANO BEACH    N/A     85  74  69 E8        29.99F
PEMBROKE PINES CLEAR     82  74  76 E5        30.00F
OPA LOCKA      CLEAR     82  74  76 E5        29.99F
MIAMI          PTCLDY    83  73  72 E7        29.99F
WEST KENDALL   CLEAR     80  72  76 E5        29.98F
HOMESTEAD      CLEAR     83  71  66 E5        29.98F

STATION/POSITION SKY/WX   TEMP    WIND        PRES    WAVE   SWELL
                          AIR SEA DIR/SP/G            HT/PER HT/PER
                          (F)     (DEG/KT/KT) (MB)    (FT/S) (FT/S)
PORT EVERGLADES            85     100/  5/  8 1015.4
VIRGINIA KEY               85 90  110/  7/ 10   N/A
LAKE WORTH                 85 87  150/  8/ 10 1015.3F
FOWEY ROCKS                85 87   80/  8/  9 1015.7F
SETTLEMENT POINT           83     160/  5/  6 1016.2F

$$




USA.gov is the U.S. government's official web portal to all federal, state and local government web resources and services.